Siegerland Airport EDGS

Flugplatz Daten

Name: Siegerland Airport

Ident: EDGS

Lat: 50,70769882

Long: 8,082969666

Platzhöhe: 1966 ft

IataCode: SGE

City:

Metar

2022/08/14 05:50
EDGS 140550Z AUTO 13005KT 9999 // NCD 18/14 Q1013

Taf

Gewünschte Webcam nicht vorhanden? Dann fügen Sie eine hinzu. Sie wird dann so schnell wie möglich freigeschaltet
Url: Title: